Total_Precipitation_Accumulation
1.59 1.94 2.27 2.71 3.08 3.48 4.08 4.62 5.03 4.94 4.64 4.18 3.69 3.31 2.82 2.50 2.21 1.90 1.67 1.51 1.42 1.40 1.57 1.40 1.48 1.54 1.49 1.40 1.38 1.45 1.48 1.30 1.53 1.63 1.21 0.90 0.78 0.71 0.62 0.62 0.62 0.56 0.64
1.43 1.74 2.21 2.61 2.96 3.36 3.76 4.06 3.98 3.55 3.30 3.12 2.84 2.47 2.32 2.17 2.07 1.96 1.73 1.40 1.33 1.27 1.19 1.21 1.18 1.24 1.28 1.17 1.12 1.23 1.22 1.04 1.29 1.39 1.27 0.90 0.74 0.63 0.48 0.50 0.50 0.54 0.68
1.18 1.47 1.98 2.28 2.44 2.73 2.94 2.94 2.69 2.28 2.15 2.12 1.93 1.95 2.07 2.08 2.02 1.98 1.84 1.59 1.45 1.38 1.30 1.20 1.09 1.06 1.05 1.06 1.03 1.10 1.11 0.99 1.02 1.13 1.30 1.05 0.76 0.62 0.43 0.42 0.48 0.63 0.76
0.85 1.15 1.48 1.63 1.80 1.88 1.91 1.90 1.81 1.67 1.58 1.58 1.52 1.42 1.51 1.69 1.81 1.93 1.94 1.92 1.78 1.57 1.40 1.25 1.06 0.91 0.87 0.93 0.82 0.89 1.01 1.03 0.92 0.91 0.98 1.01 1.06 0.98 0.65 0.41 0.39 0.58 0.69
0.78 0.94 1.00 1.02 1.14 1.19 1.26 1.26 1.34 1.39 1.38 1.41 1.54 1.43 1.23 1.17 1.10 1.14 1.26 1.36 1.43 1.35 1.14 1.03 0.94 0.84 0.77 0.75 0.78 0.89 0.96 0.98 0.91 0.90 0.88 0.93 1.08 1.10 0.98 0.68 0.58 0.61 0.57
0.57 0.66 0.70 0.73 0.79 0.84 0.91 1.05 1.17 1.32 1.31 1.30 1.32 1.34 1.25 1.17 1.07 0.99 0.98 0.93 0.96 0.95 0.87 0.80 0.79 0.76 0.74 0.74 0.73 0.78 0.86 0.94 0.99 1.00 1.03 1.08 1.09 1.15 1.24 1.04 0.87 0.80 0.68
0.40 0.37 0.39 0.43 0.47 0.48 0.55 0.76 0.90 1.03 1.03 1.02 1.04 1.05 1.16 1.14 1.04 0.90 0.80 0.72 0.66 0.66 0.69 0.70 0.73 0.71 0.75 0.79 0.85 0.85 0.84 0.92 1.03 1.05 1.13 1.20 1.19 1.25 1.35 1.29 1.10 1.01 0.98
0.22 0.19 0.19 0.21 0.27 0.32 0.35 0.44 0.64 0.76 0.85 0.84 0.88 0.99 1.18 1.20 1.07 1.05 0.88 0.77 0.68 0.65 0.66 0.72 0.78 0.75 0.73 0.73 0.83 0.86 0.92 0.99 1.03 1.01 1.17 1.26 1.19 1.31 1.44 1.47 1.44 1.31 1.31
0.12 0.11 0.12 0.13 0.16 0.20 0.25 0.28 0.41 0.57 0.70 0.75 0.80 0.80 0.82 0.86 0.86 0.85 0.80 0.73 0.76 0.68 0.73 0.79 0.86 0.85 0.84 0.85 0.89 0.88 0.97 1.15 1.22 1.20 1.24 1.29 1.27 1.31 1.44 1.56 1.60 1.59 1.53
0.09 0.09 0.08 0.09 0.10 0.14 0.23 0.32 0.36 0.47 0.72 0.85 0.83 0.70 0.61 0.56 0.65 0.69 0.72 0.75 0.76 0.73 0.75 0.79 0.81 0.85 0.85 0.86 0.90 0.94 1.03 1.20 1.27 1.34 1.42 1.41 1.34 1.39 1.45 1.50 1.62 1.73 1.75
0.07 0.05 0.04 0.05 0.08 0.12 0.21 0.38 0.47 0.58 0.78 0.97 1.00 0.88 0.71 0.65 0.64 0.62 0.58 0.63 0.70 0.75 0.78 0.73 0.66 0.62 0.66 0.79 0.93 0.97 1.05 1.14 1.19 1.25 1.25 1.24 1.26 1.31 1.26 1.34 1.47 1.64 1.78
0.05 0.03 0.02 0.03 0.06 0.09 0.20 0.50 0.76 1.06 1.18 1.32 1.43 1.26 0.90 0.73 0.64 0.54 0.49 0.55 0.65 0.71 0.75 0.70 0.63 0.59 0.65 0.79 0.93 1.06 1.26 1.39 1.35 1.27 1.19 1.11 1.17 1.27 1.27 1.35 1.37 1.44 1.66
0.04 0.03 0.03 0.03 0.04 0.05 0.11 0.28 0.39 0.68 0.94 1.19 1.32 1.11 0.77 0.57 0.50 0.46 0.49 0.59 0.68 0.71 0.71 0.71 0.73 0.82 0.90 1.01 1.12 1.18 1.31 1.36 1.27 1.23 1.16 1.08 1.09 1.13 1.22 1.32 1.35 1.34 1.41
0.04 0.03 0.05 0.06 0.05 0.05 0.06 0.17 0.24 0.30 0.44 0.75 0.92 0.82 0.60 0.49 0.43 0.43 0.46 0.50 0.52 0.58 0.66 0.79 0.95 1.06 1.12 1.14 1.19 1.17 1.14 1.13 1.05 0.99 0.94 0.98 1.09 1.15 1.15 1.13 1.16 1.19 1.29
0.06 0.06 0.07 0.07 0.07 0.07 0.09 0.15 0.21 0.25 0.38 0.65 0.82 0.73 0.58 0.49 0.40 0.35 0.37 0.43 0.52 0.58 0.71 0.86 0.95 0.95 0.96 1.01 1.08 1.05 1.00 0.94 0.88 0.81 0.67 0.67 0.85 0.98 1.01 0.93 0.97 1.03 1.11
0.09 0.09 0.09 0.11 0.12 0.14 0.13 0.14 0.17 0.22 0.35 0.57 0.77 0.77 0.63 0.50 0.39 0.36 0.41 0.53 0.59 0.67 0.80 0.87 0.87 0.81 0.64 0.59 0.60 0.64 0.70 0.75 0.76 0.68 0.63 0.61 0.61 0.62 0.64 0.67 0.72 0.80 0.89
0.16 0.14 0.14 0.15 0.16 0.18 0.19 0.22 0.22 0.24 0.38 0.58 0.73 0.82 0.75 0.64 0.56 0.48 0.54 0.62 0.68 0.75 0.81 0.80 0.80 0.77 0.73 0.57 0.44 0.41 0.48 0.56 0.58 0.60 0.64 0.52 0.44 0.48 0.48 0.49 0.47 0.48 0.53
0.19 0.20 0.18 0.20 0.19 0.20 0.24 0.28 0.30 0.32 0.44 0.59 0.75 0.83 0.82 0.80 0.83 0.76 0.73 0.79 0.87 0.89 0.89 0.84 0.83 0.87 0.83 0.69 0.55 0.45 0.40 0.48 0.51 0.55 0.60 0.61 0.59 0.58 0.60 0.58 0.55 0.49 0.46
0.21 0.24 0.25 0.23 0.24 0.24 0.26 0.30 0.34 0.41 0.53 0.63 0.79 0.88 0.94 1.01 1.02 0.99 1.01 1.10 1.16 1.09 1.06 1.05 1.04 1.04 1.02 0.85 0.60 0.50 0.51 0.61 0.61 0.62 0.63 0.65 0.66 0.64 0.53 0.54 0.55 0.56 0.56
0.23 0.28 0.31 0.28 0.29 0.29 0.32 0.42 0.53 0.66 0.80 0.89 0.98 1.13 1.29 1.42 1.46 1.43 1.37 1.34 1.39 1.29 1.20 1.13 1.11 1.10 1.14 1.04 0.69 0.53 0.60 0.78 0.82 0.84 0.77 0.64 0.58 0.55 0.46 0.49 0.61 0.59 0.58
0.26 0.27 0.27 0.26 0.28 0.30 0.38 0.56 0.71 0.88 0.98 1.08 1.17 1.35 1.61 1.75 1.67 1.63 1.53 1.45 1.45 1.47 1.44 1.31 1.26 1.27 1.28 1.19 0.82 0.66 0.73 0.88 1.00 0.99 0.95 0.89 0.72 0.54 0.47 0.47 0.55 0.59 0.63
0.27 0.26 0.27 0.28 0.33 0.38 0.52 0.73 0.88 0.93 1.03 1.19 1.38 1.58 1.78 1.74 1.62 1.77 1.71 1.67 1.71 1.70 1.63 1.57 1.47 1.43 1.42 1.29 0.96 0.70 0.75 0.93 1.13 1.21 1.17 1.09 0.87 0.65 0.57 0.54 0.53 0.50 0.49
0.28 0.29 0.33 0.39 0.42 0.52 0.72 0.93 1.00 1.07 1.13 1.22 1.37 1.51 1.60 1.74 1.87 1.91 1.86 1.82 1.80 1.80 1.71 1.66 1.59 1.51 1.52 1.48 1.05 0.81 0.86 0.96 1.09 1.30 1.32 1.10 0.89 0.74 0.60 0.56 0.56 0.50 0.46
0.25 0.28 0.36 0.47 0.58 0.69 0.85 0.97 1.00 1.02 1.03 1.06 1.09 1.20 1.37 1.51 1.65 1.88 1.92 1.89 1.83 1.83 1.80 1.69 1.59 1.56 1.60 1.59 1.27 0.99 0.94 0.99 1.03 1.14 1.20 1.07 0.91 0.79 0.69 0.64 0.61 0.58 0.59
0.27 0.33 0.40 0.49 0.58 0.72 0.85 0.89 0.93 1.02 1.08 1.08 1.07 1.09 1.17 1.35 1.46 1.60 1.70 1.72 1.73 1.55 1.48 1.38 1.32 1.33 1.41 1.39 1.16 1.01 1.03 1.14 1.20 1.17 1.21 1.23 1.11 0.99 0.89 0.85 0.87 0.87 0.82
0.28 0.37 0.46 0.55 0.62 0.73 0.87 0.93 1.02 1.12 1.19 1.18 1.12 1.12 1.17 1.30 1.40 1.47 1.43 1.25 1.19 1.01 0.89 0.87 0.83 0.86 0.92 1.02 0.90 0.80 0.89 1.06 1.13 1.09 1.13 1.23 1.23 1.15 1.07 1.01 1.03 1.02 0.98